Weather History for Dallas Love, TX

Change the Weather History Date:

Wednesday, October 19, 2011

  Actual Average Record
Temperature  
Mean Temperature 58 °F -  
Max Temperature 69 °F 75 °F 93 °F (2005)
Min Temperature 48 °F 56 °F 44 °F (2013)
Degree Days  
Heating Degree Days 7    
Growing Degree Days 8 (Base 50)    
Moisture  
Dew Point 32 °F    
Average Humidity 40    
Maximum Humidity 71    
Minimum Humidity 24    
Precipitation  
Precipitation 0.00 in - - ()
Sea Level Pressure  
Sea Level Pressure 30.08 in    
Wind  
Wind Speed 10 mph (NNW)    
Max Wind Speed 22 mph    
Max Gust Speed 30 mph    
Visibility 10 miles    
Events      
Averages and records for this station are not official NWS values.
T = Trace of Precipitation, MM = Missing Value Source: NWS Daily Summary

Daily Weather History Graph

Daily Weather History Graph

Search for Another Location

Airport:

Trip Planner

Search our weather history database for the weather conditions in past years. The results will help you decide how hot, cold, wet, or windy it might be!

Date:

Astronomy

Oct. 19, 2011 Rise Set
Actual Time 7:34 AM CDT 6:49 PM CDT
Civil Twilight 7:09 AM CDT 7:14 PM CDT
Nautical Twilight 6:40 AM CDT 7:43 PM CDT
Astronomical Twilight 6:12 AM CDT 8:12 PM CDT
Moon No Moon Rise 1:57 PM CDT (10/19)
Length of Visible Light 12h 05m
Length of Day
11h 15m
Waning Gibbous, 54% of the Moon is Illuminated
Oct 19
Waning Gibbous
Oct 19
Last Quarter
Oct 26
New
Nov 2
First Quarter
Nov 10
Full

Hourly Weather History & Observations

Time (CDT) Temp. Dew Point Humidity Pressure Visibility Wind Dir Wind Speed Gust Speed Precip Events Conditions
12:53 AM 55.9 °F 33.1 °F 42% 30.06 in 10.0 mi NW 8.1 mph - N/A   Clear
1:53 AM 55.0 °F 34.0 °F 45% 30.07 in 10.0 mi NW 8.1 mph - N/A   Clear
2:53 AM 54.0 °F 34.0 °F 47% 30.07 in 10.0 mi NNW 9.2 mph - N/A   Clear
3:53 AM 52.0 °F 34.0 °F 50% 30.07 in 10.0 mi NW 5.8 mph - N/A   Clear
4:53 AM 51.1 °F 34.0 °F 52% 30.07 in 10.0 mi NW 6.9 mph - N/A   Clear
5:53 AM 50.0 °F 33.8 °F 54% 30.08 in 10.0 mi NW 8.1 mph - N/A   Clear
6:53 AM 48.9 °F 33.1 °F 54% 30.09 in 10.0 mi NNW 9.2 mph - N/A   Clear
7:53 AM 48.9 °F 33.1 °F 54% 30.10 in 10.0 mi NW 9.2 mph - N/A   Clear
8:53 AM 52.0 °F 33.1 °F 49% 30.12 in 10.0 mi NW 9.2 mph - N/A   Clear
9:53 AM 57.9 °F 32.0 °F 37% 30.13 in 10.0 mi NNW 12.7 mph 18.4 mph N/A   Clear
10:53 AM 60.8 °F 30.2 °F 31% 30.13 in 10.0 mi NW 12.7 mph 19.6 mph N/A   Clear
11:53 AM 62.1 °F 30.0 °F 30% 30.11 in 10.0 mi NW 11.5 mph - N/A   Clear
12:53 PM 64.9 °F 32.0 °F 29% 30.09 in 10.0 mi NW 15.0 mph 19.6 mph N/A   Clear
1:53 PM 66.9 °F 32.0 °F 27% 30.05 in 10.0 mi NNW 15.0 mph 23.0 mph N/A   Partly Cloudy
2:53 PM 68.0 °F 32.0 °F 26% 30.03 in 10.0 mi North 19.6 mph 26.5 mph N/A   Partly Cloudy
3:53 PM 68.0 °F 30.0 °F 24% 30.02 in 10.0 mi North 21.9 mph 29.9 mph N/A   Partly Cloudy
4:53 PM 66.9 °F 28.9 °F 24% 30.03 in 10.0 mi NNW 17.3 mph 27.6 mph N/A   Partly Cloudy
5:53 PM 64.9 °F 28.0 °F 25% 30.03 in 10.0 mi NNW 19.6 mph 28.8 mph N/A   Clear
6:53 PM 62.1 °F 28.0 °F 28% 30.05 in 10.0 mi NNW 15.0 mph - N/A   Clear
7:53 PM 60.1 °F 30.0 °F 32% 30.07 in 10.0 mi North 8.1 mph - N/A   Clear
8:53 PM 55.9 °F 30.9 °F 39% 30.08 in 10.0 mi North 3.5 mph - N/A   Clear
9:53 PM 55.9 °F 34.0 °F 44% 30.08 in 10.0 mi Calm Calm - N/A   Clear
10:53 PM 54.0 °F 35.1 °F 49% 30.09 in 10.0 mi Calm Calm - N/A   Clear
11:53 PM 48.9 °F 39.9 °F 71% 30.09 in 10.0 mi Calm Calm - N/A   Clear